Atlantic City, NJ

10:05 AM EDT on April 30, 2017 (GMT -0400)
Atlantic City International

Weather History for KACY - July, 2013

Change the Weather History Date:

Tuesday, July 2, 2013

  Actual Average Record
Temperature  
Mean Temperature 78 °F 75 °F  
Max Temperature 83 °F 85 °F 100 °F (1966)
Min Temperature 72 °F 66 °F 46 °F (1965)
Degree Days  
Heating Degree Days 0 0  
Month to date heating degree days 0 0  
Since 1 June heating degree days 8 27  
Since 1 July heating degree days 0 0  
Cooling Degree Days 13 10  
Month to date cooling degree days 25 20  
Year to date cooling degree days 330 287  
Since 1 June cooling degree days 236 223  
Growing Degree Days 27 (Base 50)    
Moisture  
Dew Point 72 °F    
Average Humidity 87    
Maximum Humidity 100    
Minimum Humidity 74    
Precipitation  
Precipitation 0.01 in 0.12 in 3.20 in (1987)
Month to date precipitation 0.41 0.23  
Year to date precipitation 25.50 20.62  
Snow  
Snow 0.00 in 0.00 in 0.00 in (1903)
Month to date snowfall 0.0 0.0  
Since 1 June snowfall 0.0 0.0  
Since 1 July snowfall 0.0 0.0  
Snow Depth 0.00 in    
Sea Level Pressure  
Sea Level Pressure 30.14 in    
Wind  
Wind Speed 10 mph (South)    
Max Wind Speed 17 mph    
Max Gust Speed 29 mph    
Visibility 10 miles    
Events Rain    
T = Trace of Precipitation, MM = Missing Value Source: NWS Daily Summary

Daily Weather History Graph

Daily Weather History Graph

Search for Another Location

Airport or City:

Trip Planner

Search our weather history database for the weather conditions in past years. The results will help you decide how hot, cold, wet, or windy it might be!

Date:

Astronomy

Jul. 02, 2013 Rise Set
Actual Time 5:35 AM EDT 8:29 PM EDT
Civil Twilight 5:03 AM EDT 9:01 PM EDT
Nautical Twilight 4:22 AM EDT 9:42 PM EDT
Astronomical Twilight 3:35 AM EDT 10:28 PM EDT
Moon 1:35 AM EDT (7/2) 3:41 PM EDT (7/2)
Length of Visible Light 15h 58m
Length of Day
14h 53m
Waning Crescent, 26% of the Moon is Illuminated
Jul 2
Waning Crescent
Jul 8
New
Jul 15
First Quarter
Jul 22
Full
Jul 29
Last Quarter

Hourly Weather History & Observations

Time (EDT) Temp. Heat Index Dew Point Humidity Pressure Visibility Wind Dir Wind Speed Gust Speed Precip Events Conditions
12:29 AM 73.0 °F - 71.1 °F 93% 30.06 in 10.0 mi South 13.8 mph 20.7 mph N/A   Mostly Cloudy
12:54 AM 73.0 °F - 71.1 °F 93% 30.07 in 9.0 mi SSW 12.7 mph 21.9 mph N/A   Overcast
1:54 AM 73.0 °F - 71.1 °F 93% 30.08 in 9.0 mi South 10.4 mph - N/A   Overcast
2:54 AM 73.0 °F - 72.0 °F 96% 30.08 in 10.0 mi SSW 11.5 mph - N/A   Overcast
3:54 AM 73.0 °F - 71.1 °F 93% 30.09 in 10.0 mi South 11.5 mph - N/A   Overcast
4:25 AM 72.0 °F - 71.1 °F 97% 30.09 in 10.0 mi South 10.4 mph - N/A   Overcast
4:54 AM 72.0 °F - 71.1 °F 97% 30.10 in 10.0 mi South 8.1 mph - N/A   Overcast
5:49 AM 73.4 °F - 71.6 °F 94% 30.11 in 10.0 mi South 9.2 mph - N/A   Mostly Cloudy
5:54 AM 73.0 °F - 71.1 °F 93% 30.11 in 10.0 mi South 11.5 mph - N/A   Mostly Cloudy
6:19 AM 73.0 °F - 71.1 °F 93% 30.11 in 9.0 mi South 11.5 mph 19.6 mph N/A   Scattered Clouds
6:37 AM 73.0 °F - 72.0 °F 96% 30.11 in 9.0 mi South 10.4 mph - N/A   Mostly Cloudy
6:54 AM 73.0 °F - 72.0 °F 96% 30.12 in 9.0 mi South 10.4 mph 19.6 mph N/A   Overcast
7:26 AM 73.0 °F - 72.0 °F 96% 30.12 in 8.0 mi South 8.1 mph - N/A   Mostly Cloudy
7:54 AM 73.0 °F - 71.1 °F 93% 30.13 in 9.0 mi South 8.1 mph - N/A   Overcast
8:47 AM 73.9 °F - 72.0 °F 93% 30.14 in 9.0 mi South 11.5 mph - N/A   Overcast
8:54 AM 75.9 °F - 72.0 °F 87% 30.14 in 9.0 mi South 11.5 mph - N/A   Overcast
9:54 AM 75.9 °F - 72.0 °F 87% 30.15 in 9.0 mi SSW 13.8 mph 20.7 mph N/A   Mostly Cloudy
10:07 AM 75.9 °F - 72.0 °F 87% 30.15 in 10.0 mi South 13.8 mph 20.7 mph N/A   Mostly Cloudy
10:40 AM 75.0 °F - 73.0 °F 94% 30.16 in 6.0 mi SSW 11.5 mph - 0.00 in Rain Light Rain
10:54 AM 75.0 °F - 73.0 °F 94% 30.16 in 10.0 mi South 8.1 mph - 0.01 in   Mostly Cloudy
11:30 AM 75.0 °F - 73.0 °F 94% 30.17 in 10.0 mi South 6.9 mph - N/A   Mostly Cloudy
11:37 AM 75.0 °F - 73.0 °F 94% 30.17 in 10.0 mi South 8.1 mph - N/A   Mostly Cloudy
11:54 AM 75.9 °F - 73.0 °F 91% 30.17 in 9.0 mi SSE 8.1 mph - N/A   Overcast
12:01 PM 77.0 °F - 73.0 °F 88% 30.16 in 9.0 mi South 9.2 mph - N/A   Overcast
12:54 PM 80.1 °F 84.2 °F 73.0 °F 79% 30.16 in 10.0 mi South 10.4 mph - N/A   Mostly Cloudy
1:12 PM 81.0 °F 85.8 °F 73.0 °F 77% 30.15 in 10.0 mi SSE 12.7 mph - N/A   Scattered Clouds
1:19 PM 80.1 °F 84.2 °F 73.0 °F 79% 30.15 in 10.0 mi SSE 13.8 mph 18.4 mph N/A   Mostly Cloudy
1:33 PM 81.0 °F 85.8 °F 73.0 °F 77% 30.15 in 10.0 mi SSE 15.0 mph 18.4 mph N/A   Scattered Clouds
1:54 PM 82.9 °F 89.4 °F 73.9 °F 74% 30.14 in 10.0 mi South 8.1 mph - N/A   Scattered Clouds
2:15 PM 80.1 °F 83.8 °F 72.0 °F 76% 30.15 in 10.0 mi SSE 15.0 mph 20.7 mph N/A   Mostly Cloudy
2:25 PM 80.1 °F 84.2 °F 73.0 °F 79% 30.15 in 10.0 mi South 11.5 mph - N/A   Mostly Cloudy
2:54 PM 81.0 °F 85.8 °F 73.0 °F 77% 30.15 in 10.0 mi South 10.4 mph 19.6 mph N/A   Clear
3:54 PM 81.0 °F 85.8 °F 73.0 °F 77% 30.14 in 10.0 mi South 11.5 mph - N/A   Partly Cloudy
4:54 PM 80.1 °F 83.8 °F 72.0 °F 76% 30.15 in 10.0 mi South 10.4 mph - N/A   Clear
5:54 PM 79.0 °F - 72.0 °F 79% 30.17 in 10.0 mi SSW 12.7 mph - N/A   Clear
6:54 PM 78.1 °F - 72.0 °F 81% 30.18 in 10.0 mi South 11.5 mph - N/A   Clear
7:54 PM 77.0 °F - 72.0 °F 84% 30.19 in 10.0 mi SSW 9.2 mph - 0.00 in   Partly Cloudy
8:54 PM 75.0 °F - 71.1 °F 87% 30.21 in 9.0 mi WSW 9.2 mph - 0.00 in Rain Light Rain
9:54 PM 73.9 °F - 70.0 °F 87% 30.21 in 10.0 mi SSW 4.6 mph - 0.00 in   Clear
10:54 PM 73.9 °F - 71.1 °F 91% 30.22 in 10.0 mi South 5.8 mph - N/A   Clear
11:54 PM 73.0 °F - 69.1 °F 87% 30.22 in 10.0 mi South 6.9 mph - N/A   Clear